When you browse on this site, cookies collect data to enhance your experience and personalize the content and advertising you see.
Visit our Privacy Policy to learn more. By continuing to use the site, you agree to this use of cookies and data.
  • In Portugal
  • List of Countries
  • For 7 days
  • Water Temperature
  • Satellite Maps
  • Weather Map
  • Weather Widgets
  • user-avatar
    Login

    Hourly Weather Andora

    Today, 22 March, Friday

    Time Temperature Precipitation Wind Pressure Humidity
    00:00 0°C° 0 mm 1 mps 627 mmHg 55%
    01:00 0°C° 0 mm 1 mps 627 mmHg 54%
    02:00 0°C° 0 mm 1 mps 627 mmHg 52%
    03:00 0°C° 0 mm 1 mps 627 mmHg 51%
    04:00 0°C° 0 mm 1 mps 627 mmHg 51%
    05:00 0°C° 0 mm 1 mps 627 mmHg 51%
    06:00 0°C° 0 mm 1 mps 627 mmHg 52%
    07:00 +3°C° 0 mm 1 mps 628 mmHg 48%
    08:00 +6°C° 0 mm 1 mps 630 mmHg 45%
    09:00 +9°C° 0 mm 1 mps 631 mmHg 41%
    10:00 +10°C° 0 mm 1 mps 631 mmHg 40%
    11:00 +11°C° 0 mm 1 mps 632 mmHg 38%
    12:00 +12°C° 0 mm 1 mps 632 mmHg 37%
    13:00 +12°C° 0.1 mm 1 mps 631 mmHg 41%
    14:00 +11°C° 0.1 mm 1 mps 631 mmHg 45%
    15:00 +10°C° 0.1 mm 1 mps 630 mmHg 49%
    16:00 +8°C° 0.2 mm 0 mps 630 mmHg 54%
    17:00 +7°C° 0.2 mm 0 mps 629 mmHg 60%
    18:00 +5°C° 0.2 mm 0 mps 628 mmHg 66%
    19:00 +4°C° 0 mm 0 mps 628 mmHg 69%
    20:00 +3°C° 0 mm 0 mps 628 mmHg 72%
    21:00 +3°C° 0 mm 1 mps 628 mmHg 75%
    22:00 +3°C° 0 mm 1 mps 628 mmHg 76%
    23:00 +3°C° 0 mm 1 mps 628 mmHg 76%

    Tomorrow, 23 March, Saturday

    Time Temperature Precipitation Wind Pressure Humidity
    00:00 +3°C° 0 mm 1 mps 628 mmHg 76%
    01:00 +2°C° 0 mm 1 mps 628 mmHg 76%
    02:00 +2°C° 0 mm 1 mps 628 mmHg 75%
    03:00 +2°C° 0 mm 1 mps 627 mmHg 74%
    04:00 +2°C° 0 mm 1 mps 627 mmHg 73%
    05:00 +2°C° 0 mm 1 mps 627 mmHg 72%
    06:00 +2°C° 0 mm 1 mps 627 mmHg 71%
    07:00 +5°C° 0 mm 1 mps 628 mmHg 61%
    08:00 +8°C° 0 mm 1 mps 630 mmHg 52%
    09:00 +10°C° 0 mm 0 mps 631 mmHg 42%
    10:00 +11°C° 0 mm 0 mps 631 mmHg 39%
    11:00 +12°C° 0 mm 0 mps 631 mmHg 36%
    12:00 +14°C° 0 mm 1 mps 632 mmHg 33%
    13:00 +14°C° 0 mm 1 mps 631 mmHg 35%
    14:00 +14°C° 0 mm 1 mps 631 mmHg 36%
    15:00 +13°C° 0 mm 1 mps 630 mmHg 37%
    16:00 +11°C° 0 mm 1 mps 629 mmHg 45%
    17:00 +10°C° 0 mm 1 mps 628 mmHg 53%
    18:00 +8°C° 0 mm 1 mps 628 mmHg 61%
    19:00 +7°C° 0 mm 1 mps 628 mmHg 65%
    20:00 +6°C° 0 mm 1 mps 628 mmHg 69%
    21:00 +5°C° 0 mm 1 mps 627 mmHg 73%
    22:00 +4°C° 0 mm 1 mps 627 mmHg 73%
    23:00 +4°C° 0 mm 1 mps 627 mmHg 72%

    Day after tomorrow, 24 March, Sunday

    Time Temperature Precipitation Wind Pressure Humidity
    00:00 +4°C° 0 mm 1 mps 627 mmHg 71%
    01:00 +4°C° 0 mm 1 mps 627 mmHg 69%
    02:00 +4°C° 0 mm 1 mps 627 mmHg 67%
    03:00 +4°C° 0 mm 1 mps 627 mmHg 65%
    04:00 +4°C° 0 mm 1 mps 627 mmHg 64%
    05:00 +4°C° 0 mm 1 mps 626 mmHg 62%
    06:00 +4°C° 0 mm 1 mps 626 mmHg 61%
    07:00 +6°C° 0 mm 1 mps 628 mmHg 54%
    08:00 +9°C° 0 mm 1 mps 629 mmHg 47%
    09:00 +11°C° 0 mm 1 mps 630 mmHg 41%
    10:00 +12°C° 0 mm 1 mps 630 mmHg 40%
    11:00 +13°C° 0 mm 1 mps 630 mmHg 38%
    12:00 +14°C° 0 mm 1 mps 631 mmHg 37%
    13:00 +13°C° 0.1 mm 1 mps 630 mmHg 41%
    14:00 +13°C° 0.1 mm 1 mps 629 mmHg 45%
    15:00 +12°C° 0.1 mm 1 mps 629 mmHg 49%
    16:00 +10°C° 0.4 mm 1 mps 628 mmHg 57%
    17:00 +9°C° 0.4 mm 1 mps 628 mmHg 66%
    18:00 +8°C° 0.4 mm 1 mps 627 mmHg 74%
    19:00 +7°C° 0.1 mm 1 mps 627 mmHg 79%
    20:00 +6°C° 0.1 mm 1 mps 627 mmHg 83%
    21:00 +5°C° 0.1 mm 1 mps 627 mmHg 88%
    22:00 +5°C° 0 mm 1 mps 627 mmHg 89%
    23:00 +5°C° 0 mm 1 mps 627 mmHg 90%

    25 March, Monday

    Time Temperature Precipitation Wind Pressure Humidity
    00:00 +5°C° 0 mm 1 mps 627 mmHg 91%
    01:00 +4°C° 0 mm 1 mps 626 mmHg 92%
    02:00 +4°C° 0 mm 1 mps 626 mmHg 92%
    03:00 +4°C° 0 mm 1 mps 626 mmHg 93%
    04:00 +3°C° 0 mm 1 mps 626 mmHg 92%
    05:00 +3°C° 0 mm 1 mps 625 mmHg 91%
    06:00 +2°C° 0 mm 1 mps 625 mmHg 90%
    07:00 +5°C° 0 mm 1 mps 626 mmHg 78%
    08:00 +7°C° 0 mm 1 mps 627 mmHg 66%
    09:00 +9°C° 0 mm 1 mps 628 mmHg 55%
    10:00 +10°C° 0 mm 1 mps 629 mmHg 51%
    11:00 +12°C° 0 mm 1 mps 629 mmHg 47%
    12:00 +13°C° 0 mm 1 mps 629 mmHg 43%
    13:00 +12°C° 0 mm 2 mps 628 mmHg 47%
    14:00 +10°C° 0 mm 2 mps 628 mmHg 51%
    15:00 +10°C° 0 mm 2 mps 627 mmHg 56%
    16:00 +8°C° 0.1 mm 2 mps 626 mmHg 63%
    17:00 +7°C° 0.1 mm 2 mps 626 mmHg 70%
    18:00 +6°C° 0.1 mm 2 mps 625 mmHg 78%
    19:00 +5°C° 0 mm 2 mps 625 mmHg 81%
    20:00 +4°C° 0 mm 2 mps 626 mmHg 85%
    21:00 +3°C° 0 mm 2 mps 626 mmHg 89%
    22:00 +2°C° 0 mm 2 mps 625 mmHg 88%
    23:00 +1°C° 0 mm 2 mps 625 mmHg 86%

    26 March, Tuesday

    Time Temperature Precipitation Wind Pressure Humidity
    00:00 +1°C° 0 mm 2 mps 625 mmHg 85%
    01:00 -1°C° 0 mm 2 mps 625 mmHg 80%
    02:00 -1°C° 0 mm 2 mps 625 mmHg 76%
    03:00 -1°C° 0 mm 2 mps 624 mmHg 71%
    04:00 -1°C° 0 mm 2 mps 625 mmHg 71%
    05:00 -1°C° 0 mm 2 mps 625 mmHg 71%
    06:00 -1°C° 0 mm 2 mps 625 mmHg 71%
    07:00 +3°C° 0 mm 2 mps 627 mmHg 59%
    08:00 +6°C° 0 mm 2 mps 628 mmHg 46%
    09:00 +10°C° 0 mm 1 mps 629 mmHg 34%
    10:00 +12°C° 0 mm 1 mps 630 mmHg 30%
    11:00 +13°C° 0 mm 1 mps 631 mmHg 27%
    12:00 +14°C° 0 mm 1 mps 631 mmHg 24%
    13:00 +14°C° 0 mm 1 mps 631 mmHg 27%
    14:00 +14°C° 0 mm 2 mps 631 mmHg 30%
    15:00 +13°C° 0 mm 2 mps 631 mmHg 33%
    16:00 +11°C° 0 mm 1 mps 630 mmHg 42%
    17:00 +9°C° 0 mm 1 mps 629 mmHg 51%
    18:00 +7°C° 0 mm 1 mps 629 mmHg 60%
    19:00 +6°C° 0 mm 1 mps 629 mmHg 66%
    20:00 +5°C° 0 mm 1 mps 629 mmHg 72%
    21:00 +4°C° 0 mm 1 mps 629 mmHg 79%
    22:00 +3°C° 0 mm 1 mps 629 mmHg 81%
    23:00 +3°C° 0 mm 1 mps 629 mmHg 83%

    27 March, Wednesday

    Time Temperature Precipitation Wind Pressure Humidity
    00:00 +2°C° 0 mm 1 mps 629 mmHg 86%
    01:00 +2°C° 0 mm 1 mps 629 mmHg 86%
    02:00 +2°C° 0 mm 1 mps 628 mmHg 87%
    03:00 +2°C° 0 mm 1 mps 628 mmHg 87%
    04:00 +2°C° 0 mm 1 mps 628 mmHg 85%
    05:00 +2°C° 0 mm 1 mps 628 mmHg 84%
    06:00 +2°C° 0 mm 1 mps 628 mmHg 82%
    07:00 +5°C° 0 mm 1 mps 629 mmHg 68%
    08:00 +8°C° 0 mm 1 mps 631 mmHg 54%
    09:00 +11°C° 0 mm 1 mps 632 mmHg 40%
    10:00 +12°C° 0 mm 1 mps 633 mmHg 37%
    11:00 +13°C° 0 mm 1 mps 633 mmHg 34%
    12:00 +15°C° 0 mm 1 mps 633 mmHg 30%
    13:00 +15°C° 0 mm 1 mps 633 mmHg 31%
    14:00 +14°C° 0 mm 1 mps 632 mmHg 33%
    15:00 +14°C° 0 mm 1 mps 632 mmHg 34%
    16:00 +12°C° 0 mm 1 mps 631 mmHg 42%
    17:00 +10°C° 0 mm 1 mps 630 mmHg 49%
    18:00 +7°C° 0 mm 1 mps 629 mmHg 57%
    19:00 +6°C° 0 mm 1 mps 629 mmHg 61%
    20:00 +4°C° 0 mm 1 mps 628 mmHg 65%
    21:00 +3°C° 0 mm 1 mps 628 mmHg 69%
    22:00 +3°C° 0 mm 1 mps 628 mmHg 68%
    23:00 +3°C° 0 mm 1 mps 628 mmHg 68%
    Show more